SacPAS: Central Valley Prediction & Assessment of Salmon

UW Columbia Basin Research
Home Data Queries & Alerts Work Groups & Teams Fish Model Tools Contact
Alert: Weir Overtopping Temperature Thresholds Juvenile Monitoring & Sampling Juvenile Salvage & Loss Adult Escapement River Conditions Exposure Index Data Sites & Inventory

River Inventory Years


Sacramento R at Rio Vista Bridge (RVB) All Parameters Inventory : Electrical Conductivity All Locations Inventory

SACRAMENTO R Basin
Sacramento R at Rio Vista Bridge (RVB)
Electrical Conductivity
Location Parameter Year Data Points Day Range Date Range Annual
Daily Average
View
Location Parameter Year Data Points Day Range Date Range Annual
Daily Average
View
RVB Electrical Conductivity 2022 * 271 1-271 2022-01-01 : 2022-09-28 257.51 Graph | Data Table
RVB Electrical Conductivity 2021 365 1-365 2021-01-01 : 2021-12-31 420.90 Graph | Data Table
RVB Electrical Conductivity 2020 366 1-366 2020-01-01 : 2020-12-31 210.74 Graph | Data Table
RVB Electrical Conductivity 2019 365 1-365 2019-01-01 : 2019-12-31 163.69 Graph | Data Table
RVB Electrical Conductivity 2018 365 1-365 2018-01-01 : 2018-12-31 183.84 Graph | Data Table
RVB Electrical Conductivity 2017 365 1-365 2017-01-01 : 2017-12-31 144.21 Graph | Data Table
RVB Electrical Conductivity 2016 366 1-366 2016-01-01 : 2016-12-31 172.48 Graph | Data Table
RVB Electrical Conductivity 2015 365 1-365 2015-01-01 : 2015-12-31 494.72 Graph | Data Table
RVB Electrical Conductivity 2014 365 1-365 2014-01-01 : 2014-12-31 335.93 Graph | Data Table
RVB Electrical Conductivity 2013 365 1-365 2013-01-01 : 2013-12-31 212.02 Graph | Data Table
RVB Electrical Conductivity 2012 366 1-366 2012-01-01 : 2012-12-31 183.59 Graph | Data Table
RVB Electrical Conductivity 2011 365 1-365 2011-01-01 : 2011-12-31 173.62 Graph | Data Table
RVB Electrical Conductivity 2010 365 1-365 2010-01-01 : 2010-12-31 197.31 Graph | Data Table
RVB Electrical Conductivity 2009 365 1-365 2009-01-01 : 2009-12-31 208.47 Graph | Data Table
RVB Electrical Conductivity 2008 366 1-366 2008-01-01 : 2008-12-31 253.61 Graph | Data Table
RVB Electrical Conductivity 2007 364 1-365 2007-01-01 : 2007-12-31 179.91 Graph | Data Table
RVB Electrical Conductivity 2006 362 1-365 2006-01-01 : 2006-12-31 162.34 Graph | Data Table
RVB Electrical Conductivity 2005 365 1-365 2005-01-01 : 2005-12-31 182.82 Graph | Data Table
RVB Electrical Conductivity 2004 366 1-366 2004-01-01 : 2004-12-31 186.17 Graph | Data Table
RVB Electrical Conductivity 2003 76 290-365 2003-10-17 : 2003-12-31 210.40 Graph | Data Table
* Incomplete data year.
Generated: 28 Sep 2022 09:21:46 PDT. www.cbr.washington.edu/sacramento/data/.

Home | Data Queries & Alerts | Work Groups & Teams | Fish Model | Tools | Contact


POC: web@cbr.washington.edu

SacPAS: Central Valley Prediction & Assessment of Salmon, University of Washington, Columbia Basin Research, www.cbr.washington.edu/sacramento/